Back to catalog

STARLINK-2418

AliveCommunicationsVLEO
NORAD 48097·PAYLOAD·🇺🇸 United States

Launched Apr 7, 2021 from Cape Canaveral Space Force Station

Loading…

Next Passes (next 24 hours)

TLE

FreshSource: CelesTrak SupGP

Epoch: Sep 14, 2026, 21:15 UTC

1 48097C 21027F   26257.88590278  .00001316  00000+0  41287-4 0  2572
2 48097  53.1595 352.4110 0002107  30.0701 158.6764 15.32477991    11

Track STARLINK-2418 in real time with AllMySat

Download on the App Store